Regional Weather Roundup
Issued by NWS Newport/Morehead, NC

Current Version | Previous Version | Graphics & Text | Print | Product List | Glossary Off
Versions: 1 2 3 4 5 6 7 8 9 10 11 12 13 14 15 16 17 18 19 20 21 22 23 24 25 26 27 28 29 30 31 32 33 34 35 36 37 38 39 40 41 42 43 44 45 46 47 48 49 50

000
ASUS42 KMHX 101822
RWRMHX
WEATHER ROUNDUP FOR EASTERN NORTH CAROLINA
NATIONAL WEATHER SERVICE NEWPORT/MOREHEAD CITY NC
200 PM EDT THU JUL 10 2014

NOTE: "FAIR" INDICATES FEW OR NO CLOUDS BELOW 12,000 FEET
WITH NO SIGNIFICANT WEATHER AND/OR OBSTRUCTIONS TO VISIBILITY

NCZ015>017-031-032-045>047-102-103-101900-
NORTH COAST

CITY           SKY/WX    TMP DP  RH WIND       PRES   REMARKS
EDENTON        LGT RAIN  73  71  93 CALM      30.06F
ELIZABETH CITY PTSUNNY   79  70  73 S10       30.07S
KITTY HAWK     PTCLDY    87  75  68 S9G18     30.04F
MANTEO         LGT RAIN  83  76  79 S22       30.05F

$$

NCZ045>047-081-094-103-104-101900-
CENTRAL COAST

CITY           SKY/WX    TMP DP  RH WIND       PRES   REMARKS
FRISCO         MOSUNNY   86  76  71 SW13      30.10F
SWANQUARTER      N/A     86 N/A N/A SW12      30.03S

$$

NCZ095-097-098-100-101-101900-
SOUTHERN COAST

CITY           SKY/WX    TMP DP  RH WIND       PRES   REMARKS
BEAUFORT       LGT RAIN  82  77  84 SW15      30.08F
CEDAR ISLAND     N/A     86 N/A N/A S16G22    30.09F
JACKSONVILLE   MOSUNNY   85  69  58 S13       30.07F
NEWPORT        NOT AVBL
PINEY ISLAND   MOCLDY    87  79  76 S15G26    30.07F HX 101
WILMINGTON     MOSUNNY   89  76  65 S15       30.06F HX 100


$$

NCZ011>013-027>030-043-044-078>080-089-090>093-098-101900-
COASTAL PLAIN

CITY           SKY/WX    TMP DP  RH WIND       PRES   REMARKS
AHOSKIE        CLOUDY    82  72  73 CALM      30.05F
CLINTON        MOSUNNY   90  76  64 S7        30.04F HX 101
ELIZABETHTOWN  RAIN      77  67  72 N5        30.06S
GOLDSBORO      MOSUNNY   90  78  67 S10       30.02F HX 104
GREENVILLE     LGT RAIN  73  72  94 SW9       30.08F
HAVELOCK       PTSUNNY   84  73  70 SW14      30.08F
KENANSVILLE    MOSUNNY   86  70  58 CALM      30.06F
KINSTON        MOSUNNY   86  75  70 MISG      30.06F
NEW BERN       PTSUNNY   90  73  57 S6        30.07F
RICHLANDS      MOSUNNY   90  70  51 S13       30.05F
ROANOKE RAPIDS NOT AVBL
ROCKY MOUNT    PTSUNNY   87  72  60 SW7       30.04S
WASHINGTON     CLOUDY   N/A N/A N/A SW3       30.07F
WHITEVILLE     RAIN      78  70  77 S12G23    30.05F

$$

AMZ130-135-150-152-154-156-158-170-250-252-270-ANZ085-086-088-633-658-670-101900-
MARINE OBSERVATIONS

STATION/POSITION TIME  TEMP    WIND        PRES    WAVE   SWELL
                       AIR SEA DIR/SP/G            HT/PER HT/PER
                 (UTC) (F)     (DEG/KT/KT) (MB)    (FT/S) (FT/S)
CHESAPEAKE LIGHT NOT AVBL
BUOY 44014       1800   78 77  170/  6/  8 1018.5    3/ 6   3/ 6
DUCK             1800   79 63  280/  5/ 11 1016.9
2E DUCK          1800                        N/A     2/ 7
OREGON INLET     1800   83 83  180/ 19/ 22 1018.2
BUOY 44095       1800      81                N/A     3/ 6
HATTERAS CG      1800   83 82  180/  7/ 15 1019.4
DIAMOND BUOY     1800          VRB 14/ 16  1019.5    4/ 6   2/ 8
17S OCRACOKE INL NOT AVBL
CAPE LOOKOUT     1800   81     180/ 17/ 20 1018.7
BEAUFORT LAB     1800   81 82  220/  7/ 13 1018.4
30 SE NEW RIVER  1800   80 82  200/ 12/ 16 1019.0    4/ 6   2/ 6
5 SE WRIGHTSVILL 1800   78 81  200/ 14/ 16 1018.7
FRYING PAN BUOY  NOT AVBL
BUOY 41001       NOT AVBL
BUOY 41002       1701   81 81  210/ 12/ 16 1022.5    3/10   2/10
BUOY 41004       1800   82 82  200/ 12/ 12 1018.8    4/ 5   2/ 8

$$



USA.gov is the U.S. government's official web portal to all federal, state and local government web resources and services.